When you browse on this site, cookies collect data to enhance your experience and personalize the content and advertising you see.
Visit our Privacy Policy to learn more. By continuing to use the site, you agree to this use of cookies and data.
  • In Germany
  • List of Countries
  • For 7 days
  • Water Temperature
  • Satellite Maps
  • Weather Map
  • Weather Widgets
  • user-avatar
    Login

    Hourly Weather Soro

    Today, 21 January, Monday

    Time Temperature Precipitation Wind Pressure Humidity
    00:00 -1°C° 0 mm 3 mps 761 mmHg 88%
    01:00 -1°C° 0 mm 3 mps 761 mmHg 88%
    02:00 -3°C° 0 mm 4 mps 761 mmHg 87%
    03:00 -3°C° 0 mm 4 mps 761 mmHg 86%
    04:00 -3°C° 0 mm 4 mps 760 mmHg 85%
    05:00 -2°C° 0 mm 5 mps 760 mmHg 84%
    06:00 -2°C° 0 mm 5 mps 759 mmHg 83%
    07:00 -3°C° 0 mm 6 mps 759 mmHg 81%
    08:00 -3°C° 0.6 mm 6 mps 758 mmHg 84%
    09:00 -2°C° 0.6 mm 7 mps 758 mmHg 86%
    10:00 -2°C° 0.6 mm 8 mps 758 mmHg 89%
    11:00 -1°C° 0.2 mm 7 mps 758 mmHg 86%
    12:00 +1°C° 0.2 mm 6 mps 757 mmHg 84%
    13:00 +1°C° 0.2 mm 5 mps 757 mmHg 81%
    14:00 +1°C° 0.3 mm 5 mps 757 mmHg 83%
    15:00 +1°C° 0.3 mm 4 mps 756 mmHg 84%
    16:00 0°C° 0.3 mm 4 mps 756 mmHg 85%
    17:00 0°C° 0.1 mm 4 mps 756 mmHg 85%
    18:00 0°C° 0.1 mm 4 mps 756 mmHg 85%
    19:00 0°C° 0.1 mm 4 mps 755 mmHg 85%
    20:00 0°C° 0 mm 4 mps 755 mmHg 86%
    21:00 -1°C° 0 mm 4 mps 755 mmHg 87%
    22:00 -1°C° 0 mm 4 mps 755 mmHg 87%
    23:00 -1°C° 0 mm 4 mps 755 mmHg 88%

    Tomorrow, 22 January, Tuesday

    Time Temperature Precipitation Wind Pressure Humidity
    00:00 -1°C° 0 mm 3 mps 755 mmHg 89%
    01:00 -1°C° 0 mm 3 mps 754 mmHg 90%
    02:00 -1°C° 0 mm 3 mps 754 mmHg 91%
    03:00 -1°C° 0 mm 3 mps 754 mmHg 91%
    04:00 -1°C° 0 mm 3 mps 753 mmHg 92%
    05:00 -1°C° 0 mm 3 mps 753 mmHg 93%
    06:00 -1°C° 0 mm 3 mps 753 mmHg 93%
    07:00 -1°C° 0 mm 3 mps 753 mmHg 94%
    08:00 -1°C° 0 mm 3 mps 753 mmHg 94%
    09:00 -1°C° 0 mm 3 mps 752 mmHg 94%
    10:00 -2°C° 0 mm 4 mps 752 mmHg 94%
    11:00 -2°C° 0 mm 4 mps 752 mmHg 92%
    12:00 -1°C° 0 mm 4 mps 752 mmHg 90%
    13:00 -1°C° 0 mm 5 mps 751 mmHg 88%
    14:00 -2°C° 0 mm 5 mps 751 mmHg 87%
    15:00 -2°C° 0 mm 5 mps 751 mmHg 87%
    16:00 -2°C° 0 mm 5 mps 750 mmHg 87%
    17:00 -2°C° 0 mm 5 mps 750 mmHg 85%
    18:00 -4°C° 0 mm 5 mps 750 mmHg 83%
    19:00 -4°C° 0 mm 6 mps 750 mmHg 82%
    20:00 -4°C° 0 mm 6 mps 750 mmHg 79%
    21:00 -4°C° 0 mm 5 mps 750 mmHg 77%
    22:00 -4°C° 0 mm 5 mps 749 mmHg 75%
    23:00 -4°C° 0 mm 5 mps 749 mmHg 75%

    Day after tomorrow, 23 January, Wednesday

    Time Temperature Precipitation Wind Pressure Humidity
    00:00 -4°C° 0 mm 5 mps 749 mmHg 75%
    01:00 -5°C° 0 mm 5 mps 749 mmHg 76%
    02:00 -5°C° 0 mm 5 mps 749 mmHg 76%
    03:00 -5°C° 0 mm 5 mps 749 mmHg 76%
    04:00 -5°C° 0 mm 5 mps 749 mmHg 76%
    05:00 -5°C° 0 mm 5 mps 749 mmHg 76%
    06:00 -4°C° 0 mm 4 mps 749 mmHg 76%
    07:00 -4°C° 0 mm 4 mps 750 mmHg 75%
    08:00 -4°C° 0 mm 4 mps 750 mmHg 74%
    09:00 -3°C° 0 mm 4 mps 751 mmHg 73%
    10:00 -3°C° 0 mm 4 mps 751 mmHg 72%
    11:00 -3°C° 0 mm 4 mps 751 mmHg 70%
    12:00 -2°C° 0 mm 4 mps 752 mmHg 68%
    13:00 -2°C° 0 mm 4 mps 752 mmHg 66%
    14:00 -2°C° 0 mm 4 mps 752 mmHg 69%
    15:00 -2°C° 0 mm 3 mps 752 mmHg 71%
    16:00 -2°C° 0 mm 3 mps 752 mmHg 74%
    17:00 -2°C° 0 mm 3 mps 753 mmHg 75%
    18:00 -4°C° 0 mm 3 mps 753 mmHg 76%
    19:00 -4°C° 0 mm 3 mps 754 mmHg 78%
    20:00 -4°C° 0 mm 3 mps 754 mmHg 78%
    21:00 -4°C° 0 mm 3 mps 755 mmHg 79%
    22:00 -4°C° 0 mm 3 mps 755 mmHg 80%
    23:00 -3°C° 0 mm 2 mps 756 mmHg 80%

    24 January, Thursday

    Time Temperature Precipitation Wind Pressure Humidity
    00:00 -3°C° 0 mm 2 mps 756 mmHg 80%
    01:00 -3°C° 0 mm 2 mps 756 mmHg 80%
    02:00 -1°C° 0 mm 1 mps 756 mmHg 81%
    03:00 -1°C° 0 mm 1 mps 756 mmHg 81%
    04:00 -1°C° 0 mm 1 mps 757 mmHg 81%
    05:00 -1°C° 0 mm 1 mps 757 mmHg 82%
    06:00 -1°C° 0 mm 1 mps 757 mmHg 82%
    07:00 -1°C° 0 mm 1 mps 758 mmHg 82%
    08:00 -1°C° 0 mm 1 mps 758 mmHg 82%
    09:00 -1°C° 0 mm 1 mps 758 mmHg 81%
    10:00 -1°C° 0 mm 1 mps 759 mmHg 81%
    11:00 0°C° 0 mm 1 mps 759 mmHg 79%
    12:00 0°C° 0 mm 1 mps 759 mmHg 76%
    13:00 -1°C° 0 mm 2 mps 759 mmHg 74%
    14:00 -2°C° 0 mm 2 mps 759 mmHg 76%
    15:00 0°C° 0 mm 1 mps 759 mmHg 78%
    16:00 -1°C° 0 mm 1 mps 759 mmHg 80%
    17:00 -1°C° 0 mm 1 mps 759 mmHg 82%
    18:00 -1°C° 0 mm 1 mps 759 mmHg 83%
    19:00 -4°C° 0 mm 2 mps 759 mmHg 84%
    20:00 -4°C° 0 mm 2 mps 759 mmHg 85%
    21:00 -4°C° 0 mm 2 mps 759 mmHg 86%
    22:00 -4°C° 0 mm 2 mps 759 mmHg 87%
    23:00 -4°C° 0 mm 2 mps 759 mmHg 87%

    25 January, Friday

    Time Temperature Precipitation Wind Pressure Humidity
    00:00 -5°C° 0 mm 3 mps 759 mmHg 86%
    01:00 -4°C° 0 mm 3 mps 758 mmHg 86%
    02:00 -4°C° 0 mm 3 mps 758 mmHg 85%
    03:00 -4°C° 0 mm 3 mps 758 mmHg 84%
    04:00 -4°C° 0 mm 3 mps 758 mmHg 83%
    05:00 -4°C° 0 mm 4 mps 757 mmHg 83%
    06:00 -4°C° 0 mm 4 mps 757 mmHg 83%
    07:00 -4°C° 0 mm 4 mps 757 mmHg 82%
    08:00 -4°C° 0 mm 5 mps 756 mmHg 80%
    09:00 -4°C° 0 mm 6 mps 755 mmHg 78%
    10:00 -3°C° 0 mm 7 mps 755 mmHg 76%
    11:00 -4°C° 0.2 mm 8 mps 754 mmHg 77%
    12:00 -2°C° 0.2 mm 8 mps 753 mmHg 79%
    13:00 -3°C° 0.2 mm 9 mps 752 mmHg 80%
    14:00 -3°C° 0.9 mm 9 mps 751 mmHg 84%
    15:00 -3°C° 0.9 mm 9 mps 750 mmHg 87%
    16:00 -3°C° 0.9 mm 9 mps 749 mmHg 91%
    17:00 -1°C° 0.7 mm 9 mps 748 mmHg 92%
    18:00 0°C° 0.7 mm 9 mps 748 mmHg 93%
    19:00 +1°C° 0.7 mm 9 mps 747 mmHg 94%
    20:00 +1°C° 0.7 mm 8 mps 747 mmHg 95%
    21:00 +2°C° 0.7 mm 7 mps 747 mmHg 95%
    22:00 +2°C° 0.7 mm 6 mps 746 mmHg 95%
    23:00 +2°C° 0 mm 6 mps 746 mmHg 93%

    26 January, Saturday

    Time Temperature Precipitation Wind Pressure Humidity
    00:00 +1°C° 0 mm 6 mps 746 mmHg 90%
    01:00 -1°C° 0 mm 6 mps 746 mmHg 88%
    02:00 +1°C° 0 mm 6 mps 746 mmHg 87%
    03:00 0°C° 0 mm 7 mps 746 mmHg 86%
    04:00 0°C° 0 mm 7 mps 746 mmHg 85%
    05:00 0°C° 0 mm 7 mps 745 mmHg 85%
    06:00 0°C° 0 mm 7 mps 745 mmHg 85%
    07:00 0°C° 0 mm 7 mps 745 mmHg 85%
    08:00 0°C° 0 mm 7 mps 745 mmHg 86%
    09:00 0°C° 0 mm 7 mps 745 mmHg 86%
    10:00 0°C° 0 mm 7 mps 744 mmHg 87%
    11:00 0°C° 0 mm 7 mps 744 mmHg 86%
    12:00 +2°C° 0 mm 7 mps 744 mmHg 86%
    13:00 +2°C° 0 mm 7 mps 744 mmHg 86%
    14:00 +2°C° 0 mm 6 mps 744 mmHg 87%
    15:00 +1°C° 0 mm 5 mps 743 mmHg 88%
    16:00 +1°C° 0 mm 5 mps 743 mmHg 90%
    17:00 +1°C° 0 mm 5 mps 742 mmHg 91%
    18:00 0°C° 0 mm 4 mps 742 mmHg 92%
    19:00 0°C° 0 mm 4 mps 742 mmHg 93%
    20:00 +1°C° 0 mm 3 mps 741 mmHg 94%
    21:00 0°C° 0 mm 3 mps 741 mmHg 95%
    22:00 0°C° 0 mm 3 mps 740 mmHg 95%
    23:00 +1°C° 0.1 mm 2 mps 740 mmHg 95%
    Show more